TimeMDT,TemperatureF,Dew PointF,Humidity,Sea Level PressureIn,VisibilityMPH,Wind Direction,Wind SpeedMPH,Gust SpeedMPH,PrecipitationIn,Events,Conditions,WindDirDegrees,DateUTC
12:53 AM,60.1,50.0,69,29.96,10.0,Calm,Calm,-,N/A,,Clear,0,2013-09-08 06:53:00
1:53 AM,57.9,50.0,75,29.98,10.0,Calm,Calm,-,N/A,,Clear,0,2013-09-08 07:53:00
2:53 AM,55.9,50.0,80,29.97,10.0,Calm,Calm,-,N/A,,Clear,0,2013-09-08 08:53:00
3:53 AM,55.9,50.0,80,29.96,10.0,Calm,Calm,-,N/A,,Clear,0,2013-09-08 09:53:00
4:53 AM,54.0,50.0,86,29.97,10.0,Calm,Calm,-,N/A,,Clear,0,2013-09-08 10:53:00
5:53 AM,54.0,50.0,86,29.97,10.0,Calm,Calm,-,N/A,,Clear,0,2013-09-08 11:53:00
6:53 AM,52.0,48.9,89,29.98,10.0,Calm,Calm,-,N/A,,Clear,0,2013-09-08 12:53:00
7:53 AM,53.1,50.0,89,29.99,10.0,Calm,Calm,-,N/A,,Clear,0,2013-09-08 13:53:00
8:53 AM,59.0,53.1,81,30.01,10.0,Calm,Calm,-,N/A,,Clear,0,2013-09-08 14:53:00
9:53 AM,66.0,53.1,63,30.01,10.0,Calm,Calm,-,N/A,,Clear,0,2013-09-08 15:53:00
10:53 AM,70.0,54.0,57,30.00,10.0,Calm,Calm,-,N/A,,Clear,0,2013-09-08 16:53:00
11:53 AM,75.0,53.1,46,30.00,10.0,Calm,Calm,-,N/A,,Clear,0,2013-09-08 17:53:00
12:53 PM,81.0,46.9,30,29.97,10.0,NW,9.2,-,N/A,,Clear,320,2013-09-08 18:53:00
1:53 PM,84.0,44.1,25,29.96,10.0,NNW,11.5,-,N/A,,Clear,330,2013-09-08 19:53:00
2:53 PM,84.9,45.0,25,29.94,10.0,NW,11.5,-,N/A,,Clear,310,2013-09-08 20:53:00
3:53 PM,86.0,44.1,23,29.92,10.0,NW,17.3,23.0,N/A,,Clear,310,2013-09-08 21:53:00
4:53 PM,86.0,43.0,22,29.91,10.0,NNW,17.3,24.2,N/A,,Clear,330,2013-09-08 22:53:00
5:53 PM,84.9,43.0,23,29.89,10.0,NNW,18.4,25.3,N/A,,Clear,330,2013-09-08 23:53:00
6:53 PM,82.0,43.0,25,29.90,10.0,NW,18.4,24.2,N/A,,Clear,320,2013-09-09 00:53:00
7:53 PM,78.1,43.0,29,29.90,10.0,NNW,15.0,-,N/A,,Clear,330,2013-09-09 01:53:00
8:53 PM,73.9,43.0,33,29.91,10.0,NW,18.4,25.3,N/A,,Clear,320,2013-09-09 02:53:00
9:53 PM,73.0,45.0,37,29.92,10.0,NW,19.6,27.6,N/A,,Clear,320,2013-09-09 03:53:00
10:53 PM,71.1,46.0,41,29.93,10.0,NW,15.0,-,N/A,,Clear,320,2013-09-09 04:53:00
11:53 PM,69.1,46.0,44,29.95,10.0,NW,15.0,21.9,N/A,,Clear,320,2013-09-09 05:53:00